This demonstration page uses our WeatherBlox Daily Observations layout. Learn more.

Hourly Observations for March 15, 2019

Temp ( °F °C ) Dew Point ( °F °C ) Humidity (%) Winds ( mph kmh ) Pressure ( in mb ) Visibility ( mi km ) Precip ( " mm )
12:15 am 00:15 Clear 68 20 52 11 56 56 S 14 22 29.91 1013 10 16.09344 0 0
12:35 am 00:35 Clear 68 20 54 12 60 60 SSW 13 20 29.91 1013 10 16.09344 0 0
12:55 am 00:55 Clear 68 20 54 12 60 60 SSW 16 26 29.88 1012 10 16.09344 0 0
1:15 am 01:15 Clear 68 20 54 12 60 60 SSW 18 30 29.88 1012 10 16.09344 0 0
1:35 am 01:35 Clear 68 20 54 12 60 60 SSW 21 33 29.88 1012 10 16.09344 0 0
1:55 am 01:55 Clear 68 20 54 12 60 60 SSW 18 30 29.88 1012 10 16.09344 0 0
2:15 am 02:15 Clear 68 20 54 12 60 60 SSW 16 26 29.88 1012 10 16.09344 0 0
2:35 am 02:35 Clear 66 19 54 12 64 64 SSW 18 30 29.88 1012 10 16.09344 0 0
2:55 am 02:55 Clear 66 19 54 12 64 64 SSW 18 30 29.85 1011 10 16.09344 0 0
3:15 am 03:15 Clear 66 19 54 12 64 64 SSW 17 28 29.85 1011 10 16.09344 0 0
3:35 am 03:35 Clear 66 19 55 13 68 68 SSW 17 28 29.85 1011 10 16.09344 0 0
3:55 am 03:55 Clear 66 19 55 13 68 68 SSW 15 24 29.85 1011 10 16.09344 0 0
4:15 am 04:15 Clear 64 18 55 13 73 73 SSW 15 24 29.85 1011 10 16.09344 0 0
4:35 am 04:35 Clear 64 18 55 13 73 73 SSW 15 24 29.83 1010 10 16.09344 0 0
4:55 am 04:55 Clear 64 18 55 13 73 73 SSW 14 22 29.83 1010 10 16.09344 0 0
5:15 am 05:15 Clear 64 18 55 13 73 73 SSW 12 19 29.83 1010 10 16.09344 0 0
5:35 am 05:35 Clear 64 18 55 13 73 73 SSW 10 17 29.85 1011 10 16.09344 0 0
5:55 am 05:55 Clear 64 18 57 14 78 78 S 15 24 29.85 1011 10 16.09344 0 0
6:15 am 06:15 Clear 64 18 57 14 78 78 SSW 12 19 29.85 1011 10 16.09344 0 0
6:35 am 06:35 Partly Cloudy 64 18 57 14 78 78 S 14 22 29.85 1011 10 16.09344 0 0
6:55 am 06:55 Clear 64 18 57 14 78 78 SSW 10 17 29.85 1011 10 16.09344 0 0
7:15 am 07:15 Clear 64 18 57 14 78 78 SSW 12 19 29.85 1011 10 16.09344 0 0
7:35 am 07:35 Sunny 64 18 59 15 83 83 SSW 10 17 29.85 1011 10 16.09344 0 0
7:55 am 07:55 Sunny 64 18 59 15 83 83 S 12 19 29.85 1011 10 16.09344 0 0
8:15 am 08:15 Sunny 64 18 59 15 83 83 SSW 12 19 29.85 1011 10 16.09344 0 0
8:35 am 08:35 Sunny 64 18 59 15 83 83 SSW 14 22 29.85 1011 10 16.09344 0 0
8:55 am 08:55 Sunny 64 18 59 15 83 83 SSW 14 22 29.85 1011 10 16.09344 0 0
9:15 am 09:15 Sunny 66 19 59 15 78 78 SSW 17 28 29.85 1011 10 16.09344 0 0
9:35 am 09:35 Sunny 68 20 59 15 73 73 SSW 12 19 29.85 1011 10 16.09344 0 0
9:55 am 09:55 Sunny 68 20 59 15 73 73 SSW 12 19 29.85 1011 10 16.09344 0 0
10:15 am 10:15 Sunny 70 21 61 16 73 73 SSW 12 19 29.85 1011 10 16.09344 0 0
10:35 am 10:35 Sunny 70 21 61 16 73 73 SW 14 22 29.85 1011 10 16.09344 0 0
10:55 am 10:55 Partly Cloudy 72 22 61 16 69 69 SSW 15 24 29.83 1010 10 16.09344 0 0
11:15 am 11:15 Partly Cloudy 73 23 61 16 65 65 WSW 10 17 29.83 1010 10 16.09344 0 0
11:35 am 11:35 Partly Cloudy 73 23 61 16 65 65 SW 13 20 29.83 1010 10 16.09344 0 0
11:55 am 11:55 Mostly Cloudy 73 23 61 16 65 65 S 10 17 29.83 1010 10 16.09344 0 0
12:15 pm 12:15 Mostly Cloudy 73 23 61 16 65 65 S 14 22 29.83 1010 10 16.09344 0 0
12:35 pm 12:35 Cloudy 75 24 61 16 61 61 S 10 17 29.8 1009 10 16.09344 0 0
12:55 pm 12:55 Mostly Cloudy 77 25 61 16 57 57 S 10 17 29.8 1009 10 16.09344 0 0
1:15 pm 13:15 Mostly Cloudy 75 24 61 16 61 61 S 14 22 29.8 1009 10 16.09344 0 0
1:35 pm 13:35 Mostly Cloudy 77 25 61 16 57 57 S 16 26 29.77 1008 10 16.09344 0 0
1:55 pm 13:55 Mostly Cloudy 79 26 61 16 54 54 SSW 16 26 29.77 1008 10 16.09344 0 0
2:15 pm 14:15 Cloudy 79 26 61 16 54 54 S 16 26 29.74 1007 10 16.09344 0 0
2:35 pm 14:35 Cloudy 75 24 63 17 65 65 S 16 26 29.74 1007 10 16.09344 0 0
2:55 pm 14:55 Cloudy 75 24 63 17 65 65 SSW 13 20 29.74 1007 10 16.09344 0 0
3:15 pm 15:15 Cloudy 73 23 64 18 74 74 SSW 15 24 29.71 1006 10 16.09344 0 0
3:35 pm 15:35 Cloudy 75 24 63 17 65 65 SSW 16 26 29.71 1006 10 16.09344 0 0
3:55 pm 15:55 Cloudy 75 24 63 17 65 65 SSW 17 28 29.71 1006 10 16.09344 0 0
4:15 pm 16:15 Cloudy 75 24 63 17 65 65 SSW 23 37 29.71 1006 10 16.09344 0 0
4:35 pm 16:35 Cloudy 77 25 63 17 61 61 SW 13 20 29.71 1006 10 16.09344 0 0
4:55 pm 16:55 Mostly Cloudy 77 25 63 17 61 61 S 13 20 29.71 1006 10 16.09344 0 0
5:15 pm 17:15 Mostly Cloudy 77 25 61 16 57 57 SSW 14 22 29.68 1005 10 16.09344 0 0
5:35 pm 17:35 Cloudy 75 24 61 16 61 61 SSW 18 30 29.68 1005 10 16.09344 0 0
5:55 pm 17:55 Cloudy 73 23 63 17 69 69 SSW 17 28 29.71 1006 10 16.09344 0 0
6:15 pm 18:15 Mostly Cloudy 73 23 63 17 69 69 SSW 17 28 29.71 1006 10 16.09344 0 0
6:35 pm 18:35 Mostly Cloudy 73 23 63 17 69 69 SSW 12 19 29.71 1006 10 16.09344 0 0
6:55 pm 18:55 Partly Cloudy 73 23 63 17 69 69 SSW 9 15 29.71 1006 10 16.09344 0 0
7:15 pm 19:15 Partly Cloudy 72 22 61 16 69 69 WSW 9 15 29.71 1006 10 16.09344 0 0
7:35 pm 19:35 Partly Cloudy 72 22 63 17 73 73 WSW 6 9 29.74 1007 10 16.09344 0 0
7:55 pm 19:55 Cloudy 72 22 46 8 41 41 NW 16 26 29.74 1007 10 16.09344 0 0
8:15 pm 20:15 Cloudy 70 21 37 3 31 31 NW 21 33 29.77 1008 10 16.09344 0 0
8:35 pm 20:35 Cloudy 68 20 37 3 33 33 NW 17 28 29.77 1008 10 16.09344 0 0
8:55 pm 20:55 Partly Cloudy 66 19 39 4 37 37 NW 21 33 29.8 1009 10 16.09344 0 0
9:15 pm 21:15 Clear 64 18 39 4 40 40 NW 22 35 29.8 1009 10 16.09344 0 0
9:35 pm 21:35 Clear 63 17 39 4 42 42 WNW 24 39 29.83 1010 10 16.09344 0 0
9:55 pm 21:55 Clear 61 16 39 4 45 45 NW 26 43 29.83 1010 10 16.09344 0 0
10:15 pm 22:15 Clear 61 16 37 3 42 42 WNW 24 39 29.85 1011 10 16.09344 0 0
10:35 pm 22:35 Clear 61 16 37 3 42 42 NW 20 31 29.88 1012 10 16.09344 0 0
10:55 pm 22:55 Clear 59 15 37 3 45 45 WNW 22 35 29.88 1012 10 16.09344 0 0
11:15 pm 23:15 Clear 57 14 36 2 44 44 NW 17 28 29.88 1012 10 16.09344 0 0
11:35 pm 23:35 Clear 55 13 36 2 47 47 NW 17 28 29.91 1013 10 16.09344 0 0
11:55 pm 23:55 Clear 55 13 36 2 47 47 NW 10 17 29.94 1014 10 16.09344 0 0

Powered by AerisWeather